Location: Unspecified
(0.0000°N, 0.0000°E)
Time: 23:37:13
(UTC+00:00)

Amateur Radio Satellites - All Passes

Search period start: 22 July 2014 23:07
Search period end: 23 July 2014 23:07
Location: Unspecified, 0.0000°N, 0.0000°E

Satellite Date Start Highest point End Downlink Frequencies (MHz)
Time Altitude Azimuth
Sapphire 22 Jul 23:10:19 23:12:43 13° 110° (ESE) 23:15:07 437.095 MHz 1200 baud AX-25 AFSK
PCSat 22 Jul 23:41:59 23:46:53 36° 109° (ESE) 23:51:46 145.825 MHz
RS-15 23 Jul 00:00:13 00:11:14 55° 70° (ENE) 00:22:44 29.354 - 29.394 USB, Beacon 29.352 USB
Oscar 10/S400 23 Jul 00:01:39 06:55:52 71° 141° (SE) 10:50:17 145.825 - 145.975 CW/USB, Beacon 145.810 USB
Oscar 19 23 Jul 00:13:25 00:15:59 14° 103° (ESE) 00:18:33 437.125 CW, 437.150 USB
SO-50 23 Jul 00:15:45 00:20:33 66° 248° (WSW) 00:25:21 436.795 FM
Oscar 16 23 Jul 00:38:30 00:43:02 32° 103° (ESE) 00:47:36 437.025 USB, Beacon 2401.1428
ITAMSAT 1 23 Jul 00:47:05 00:49:19 13° 103° (ESE) 00:51:33 435.822 SSB
Sapphire 23 Jul 00:50:53 00:55:53 40° 289° (WNW) 01:00:54 437.095 MHz 1200 baud AX-25 AFSK
AO-27 23 Jul 01:02:43 01:06:37 22° 103° (ESE) 01:10:31 436.795 MHz FM
Uribyol 2 23 Jul 01:06:20 01:10:32 26° 103° (ESE) 01:14:45 436.500 FM
UOSAT-12 23 Jul 01:16:41 01:20:23 24° 67° (ENE) 01:24:02 437.025 FM, 437.400 FM
AO-Echo 23 Jul 01:23:02 01:27:35 38° 102° (ESE) 01:32:00 ?
PCSat 23 Jul 01:27:07 01:30:02 15° 290° (WNW) 01:32:57 145.825 MHz
Oscar 19 23 Jul 01:50:21 01:55:02 35° 282° (WNW) 01:59:44 437.125 CW, 437.150 USB
JAS-1B 23 Jul 02:00:02 02:08:07 51° 102° (ESE) 02:14:54 435.800 - 435.900 CW/SSB
TMSAT-1 23 Jul 02:05:09 02:09:27 26° 103° (ESE) 02:13:45 436.925 FM
AO-40 23 Jul 02:06:58 03:37:24 41° 257° (WSW) 07:38:58 Beacon 2401.320
RS-15 23 Jul 02:14:16 02:23:20 27° 247° (WSW) 02:32:49 29.354 - 29.394 USB, Beacon 29.352 USB
Oscar 16 23 Jul 02:19:07 02:22:07 16° 283° (WNW) 02:25:08 437.025 USB, Beacon 2401.1428
ITAMSAT 1 23 Jul 02:23:48 02:28:31 37° 283° (WNW) 02:33:16 435.822 SSB
Gurwin Techsat 1B 23 Jul 02:23:59 02:29:15 68° 102° (ESE) 02:34:31 435.225 FM
PANSAT 23 Jul 02:33:26 02:37:13 53° 150° (SSE) 02:41:00 not established
AO-27 23 Jul 02:41:53 02:45:51 23° 283° (WNW) 02:49:50 436.795 MHz FM
Uribyol 2 23 Jul 02:46:10 02:49:44 19° 283° (WNW) 02:53:20 436.500 FM
UOSAT-12 23 Jul 02:57:23 03:00:16 16° 248° (WSW) 03:03:07 437.025 FM, 437.400 FM
AO-Echo 23 Jul 03:04:46 03:06:02 11° 283° (WNW) 03:07:17 ?
Uosat F 23 Jul 03:14:11 03:18:18 26° 103° (ESE) 03:22:25 435.120 FM
AO-7 23 Jul 03:33:55 03:41:50 50° 106° (ESE) 03:49:44 29.400 - 29.500 MHz
TMSAT-1 23 Jul 03:45:18 03:49:05 20° 283° (WNW) 03:52:54 436.925 FM
JAS-1B 23 Jul 03:52:29 03:57:59 19° 288° (WNW) 04:02:59 435.800 - 435.900 CW/SSB
KITSAT 1 23 Jul 04:00:16 04:03:52 13° 112° (ESE) 04:07:27 435.175 FM
OPAL 23 Jul 04:02:50 04:07:38 45° 256° (WSW) 04:12:21 ?
PANSAT 23 Jul 04:14:23 04:17:22 21° 331° (NNW) 04:20:20 not established
Uosat F 23 Jul 04:53:33 04:56:49 18° 283° (WNW) 05:00:05 435.120 FM
Hamsat 23 Jul 05:17:42 05:21:43 39° 102° (ESE) 05:25:47 145.90 MHz
AO-7 23 Jul 05:28:25 05:34:14 21° 287° (WNW) 05:40:05 29.400 - 29.500 MHz
KITSAT 1 23 Jul 05:50:59 05:59:02 70° 290° (WNW) 06:07:04 435.175 FM
JAS-2 23 Jul 06:08:39 06:14:07 79° 283° (WNW) 06:19:18 435.800 - 435.900 CW/SSB, 435.910 FM
STRAND 1 23 Jul 06:14:27 06:19:33 63° 77° (ENE) 06:24:37 ?
SO-67 23 Jul 07:12:08 07:15:19 35° 281° (W) 07:18:31 435.3500 MHz FM
Saudisat 1A 23 Jul 07:31:18 07:35:26 40° 292° (WNW) 07:39:33 436.775 MHz
HO-68 23 Jul 07:46:47 07:52:13 24° 105° (ESE) 07:57:39 435.675 MHz FM
MaSat-1 23 Jul 07:49:21 07:51:28 13° 70° (ENE) 07:53:30 437.345 MHz
Lituanica SAT-1 23 Jul 08:58:40 09:00:51 73° 54° (NE) 09:03:03 437.275 MHz beacon
MaSat-1 23 Jul 09:24:25 09:28:43 32° 255° (WSW) 09:32:35 437.345 MHz
Oscar 11 23 Jul 09:30:19 09:34:39 80° 282° (WNW) 09:39:00 145.825 FM, Beacon 2401.500 USB
HO-68 23 Jul 09:33:10 09:39:35 37° 285° (WNW) 09:46:03 435.675 MHz FM
FUNcube-1 23 Jul 09:33:44 09:37:20 28° 102° (ESE) 09:41:01 145.950 - 145.970 MHz USB
ISS 23 Jul 09:47:25 09:49:43 17° 54° (NE) 09:52:00 145.800 FM
SO-50 23 Jul 10:52:34 10:53:39 11° 113° (ESE) 10:54:44 436.795 FM
FUNcube-1 23 Jul 11:12:29 11:13:31 11° 281° (WNW) 11:14:33 145.950 - 145.970 MHz USB
ISS 23 Jul 11:24:19 11:26:14 15° 234° (SW) 11:28:11 145.800 FM
RS-15 23 Jul 11:43:27 11:54:27 46° 111° (ESE) 12:04:54 29.354 - 29.394 USB, Beacon 29.352 USB
Sapphire 23 Jul 11:44:03 11:49:06 41° 71° (ENE) 11:54:10 437.095 MHz 1200 baud AX-25 AFSK
PCSat 23 Jul 12:17:48 12:23:10 72° 251° (WSW) 12:28:33 145.825 MHz
SO-50 23 Jul 12:30:00 12:33:58 32° 292° (WNW) 12:37:55 436.795 FM
Oscar 19 23 Jul 12:45:13 12:49:52 35° 78° (ENE) 12:54:30 437.125 CW, 437.150 USB
Oscar 16 23 Jul 13:11:55 13:17:04 83° 78° (ENE) 13:22:11 437.025 USB, Beacon 2401.1428
ITAMSAT 1 23 Jul 13:19:44 13:24:28 35° 77° (ENE) 13:29:11 435.822 SSB
Gurwin Techsat 1B 23 Jul 13:26:11 13:28:12 12° 77° (ENE) 13:30:12 435.225 FM
UOSAT-12 23 Jul 13:26:16 13:30:25 39° 112° (ESE) 13:34:38 437.025 FM, 437.400 FM
Sapphire 23 Jul 13:30:00 13:32:17 13° 250° (WSW) 13:34:34 437.095 MHz 1200 baud AX-25 AFSK
AO-27 23 Jul 13:36:47 13:41:56 59° 77° (ENE) 13:47:04 436.795 MHz FM
Uribyol 2 23 Jul 13:40:23 13:45:36 70° 77° (ENE) 13:50:46 436.500 FM
AO-Echo 23 Jul 13:51:23 13:56:28 89° 256° (WSW) 14:01:42 ?
RS-15 23 Jul 13:56:45 14:06:20 31° 291° (WNW) 14:15:40 29.354 - 29.394 USB, Beacon 29.352 USB
JAS-1B 23 Jul 14:07:09 14:14:02 57° 75° (ENE) 14:22:13 435.800 - 435.900 CW/SSB
PANSAT 23 Jul 14:20:58 14:24:43 55° 30° (NNE) 14:28:30 not established
Oscar 19 23 Jul 14:26:32 14:28:55 13° 257° (WSW) 14:31:19 437.125 CW, 437.150 USB
TMSAT-1 23 Jul 14:42:23 14:47:42 75° 78° (ENE) 14:52:58 436.925 FM
OPAL 23 Jul 14:56:19 15:00:32 26° 105° (ESE) 15:04:48 ?
ITAMSAT 1 23 Jul 15:00:59 15:03:40 14° 257° (WSW) 15:06:22 435.822 SSB
Gurwin Techsat 1B 23 Jul 15:02:54 15:07:52 41° 257° (WSW) 15:12:51 435.225 FM
Uosat F 23 Jul 15:43:07 15:48:06 63° 77° (ENE) 15:53:05 435.120 FM
AO-7 23 Jul 15:59:53 16:08:14 80° 74° (ENE) 16:16:35 29.400 - 29.500 MHz
JAS-1B 23 Jul 16:00:51 16:04:40 15° 260° (W) 16:08:48 435.800 - 435.900 CW/SSB
PANSAT 23 Jul 16:01:59 16:04:52 20° 209° (SSW) 16:07:46 not established
KITSAT 1 23 Jul 16:06:44 16:11:54 18° 69° (ENE) 16:17:03 435.175 FM
OPAL 23 Jul 16:35:33 16:39:09 19° 284° (WNW) 16:42:47 ?
Hamsat 23 Jul 17:25:08 17:29:13 49° 79° (E) 17:33:14 145.90 MHz
JAS-2 23 Jul 17:38:30 17:45:53 59° 77° (ENE) 17:53:34 435.800 - 435.900 CW/SSB, 435.910 FM
AO-7 23 Jul 17:58:10 18:00:32 11° 252° (WSW) 18:02:54 29.400 - 29.500 MHz
KITSAT 1 23 Jul 17:59:14 18:07:00 54° 250° (WSW) 18:14:48 435.175 FM
Saudisat 1A 23 Jul 18:00:03 18:02:16 14° 67° (ENE) 18:04:29 436.775 MHz
STRAND 1 23 Jul 18:47:22 18:52:16 50° 283° (WNW) 18:57:11 ?
SO-67 23 Jul 18:56:51 19:00:18 68° 259° (W) 19:03:44 435.3500 MHz FM
JAS-2 23 Jul 19:26:05 19:30:35 17° 257° (WSW) 19:35:14 435.800 - 435.900 CW/SSB, 435.910 FM
Saudisat 1A 23 Jul 19:37:59 19:41:36 25° 248° (WSW) 19:45:13 436.775 MHz
HO-68 23 Jul 19:38:59 19:43:53 20° 75° (ENE) 19:48:45 435.675 MHz FM
MaSat-1 23 Jul 21:18:10 21:20:32 21° 290° (WNW) 21:23:11 437.345 MHz
ISS 23 Jul 21:24:15 21:25:29 12° 126° (SE) 21:26:43 145.800 FM
HO-68 23 Jul 21:24:29 21:31:15 45° 255° (WSW) 21:38:00 435.675 MHz FM
Oscar 11 23 Jul 21:39:44 21:44:00 57° 258° (WSW) 21:48:13 145.825 FM, Beacon 2401.500 USB
FUNcube-1 23 Jul 21:44:11 21:48:30 42° 79° (ENE) 21:52:43 145.950 - 145.970 MHz USB
ISS 23 Jul 22:59:25 23:02:01 21° 306° (NW) 23:04:38 145.800 FM
